Location: Peebles
(55.6412°N, 3.1714°W)
Time: 05:11:09
(UTC+01:00)

deb NNS O-4 - Pass Details

Date: 03 July 2022
Orbit: 977 x 1074 km, 89.9° (Epoch: 16 August)

Event Time Altitude Azimuth Distance (km) Brightness Sun altitude
Exits shadow 02:03:12 - 159° (SSE) 3,094 ? -10.8°
Reaches altitude 10° 02:03:44 10° 158° (SSE) 2,904 ? -10.8°
Maximum altitude 02:10:15 60° 81° (E) 1,213 ? -10.6°
Drops below altitude 10° 02:16:44 10° 4° (N) 2,883 ? -10.4°
Sets 02:19:18 0° 1° (N) 3,828 ? -10.3°
